| time (UTC) | temp F | wind direction | speed MPH | gust MPH | rain 1hr in | rain 24hr in | rain mn in | humidity % | barometer mb |
| 20260906011509 | 78 | 1 | 0.0 | 0.0 | 0.00 | 0.00 | 0.00 | 36 | 1010.4 |
| 20260906010022 | 79 | 16 | 0.0 | 4.0 | 0.00 | 0.00 | 0.00 | 35 | 1010.3 |
| 20260906004508 | 80 | 61 | 0.0 | 3.0 | 0.00 | 0.00 | 0.00 | 34 | 1010.4 |
| 20260906003007 | 80 | 61 | 0.0 | 9.0 | 0.00 | 0.00 | 0.00 | 33 | 1010.3 |
| 20260906001503 | 80 | 38 | 0.0 | 5.0 | 0.00 | 0.00 | 0.00 | 32 | 1010.4 |
| 20260906000007 | 80 | 58 | 0.0 | 8.0 | 0.00 | 0.00 | 0.00 | 32 | 1010.3 |
| 20260905234501 | 81 | 41 | 1.0 | 19.0 | 0.00 | 0.00 | 0.00 | 31 | 1010.0 |
| 20260905233001 | 81 | 65 | 6.0 | 16.0 | 0.00 | 0.00 | 0.00 | 30 | 1009.9 |
| 20260905231559 | 81 | 56 | 5.0 | 15.0 | 0.00 | 0.00 | 0.00 | 29 | 1009.9 |
| 20260905230059 | 81 | 44 | 3.0 | 18.0 | 0.00 | 0.00 | 0.00 | 30 | 1009.8 |
| 20260905224558 | 81 | 6 | 6.0 | 16.0 | 0.00 | 0.00 | 0.00 | 29 | 1009.8 |
| 20260905223056 | 81 | 42 | 2.0 | 21.0 | 0.00 | 0.00 | 0.00 | 30 | 1009.8 |
| 20260905221526 | 81 | 63 | 10.0 | 17.0 | 0.00 | 0.00 | 0.00 | 30 | 1009.7 |
| 20260905220025 | 81 | 41 | 4.0 | 15.0 | 0.00 | 0.00 | 0.00 | 30 | 1009.9 |
| 20260905214519 | 80 | 32 | 1.0 | 10.0 | 0.00 | 0.00 | 0.00 | 32 | 1010.2 |
| 20260905213017 | 80 | 21 | 1.0 | 10.0 | 0.00 | 0.00 | 0.00 | 31 | 1010.3 |
| 20260905211540 | 79 | 42 | 0.0 | 11.0 | 0.00 | 0.00 | 0.00 | 31 | 1010.4 |
| 20260905210017 | 79 | 45 | 0.0 | 13.0 | 0.00 | 0.00 | 0.00 | 30 | 1010.5 |
| 20260905204512 | 79 | 47 | 6.0 | 21.0 | 0.00 | 0.00 | 0.00 | 29 | 1010.6 |
| 20260905203011 | 80 | 354 | 0.0 | 6.0 | 0.00 | 0.00 | 0.00 | 29 | 1010.7 |
| 20260905201510 | 79 | 345 | 1.0 | 12.0 | 0.00 | 0.00 | 0.00 | 30 | 1010.8 |
| 20260905200009 | 79 | 359 | 0.0 | 9.0 | 0.00 | 0.00 | 0.00 | 29 | 1010.8 |
| 20260905194505 | 78 | 11 | 1.0 | 10.0 | 0.00 | 0.00 | 0.00 | 29 | 1010.7 |
| 20260905193001 | 78 | 331 | 0.0 | 12.0 | 0.00 | 0.00 | 0.00 | 30 | 1010.8 |
| 20260905191558 | 77 | 50 | 0.0 | 22.0 | 0.00 | 0.00 | 0.00 | 31 | 1010.9 |
| 20260905190056 | 77 | 37 | 1.0 | 16.0 | 0.00 | 0.00 | 0.00 | 32 | 1011.0 |
| 20260905184555 | 76 | 33 | 8.0 | 17.0 | 0.00 | 0.00 | 0.00 | 32 | 1011.2 |
| 20260905183056 | 76 | 351 | 1.0 | 15.0 | 0.00 | 0.00 | 0.00 | 32 | 1011.4 |
| 20260905181548 | 74 | 38 | 0.0 | 15.0 | 0.00 | 0.00 | 0.00 | 34 | 1011.6 |
| 20260905180056 | 75 | 31 | 4.0 | 13.0 | 0.00 | 0.00 | 0.00 | 34 | 1011.8 |
| 20260905174552 | 74 | 32 | 1.0 | 13.0 | 0.00 | 0.00 | 0.00 | 35 | 1011.9 |
| 20260905173055 | 73 | 331 | 1.0 | 18.0 | 0.00 | 0.00 | 0.00 | 37 | 1012.0 |
| 20260905171540 | 72 | 330 | 4.0 | 15.0 | 0.00 | 0.00 | 0.00 | 36 | 1012.1 |
| 20260905170036 | 71 | 8 | 11.0 | 20.0 | 0.00 | 0.00 | 0.00 | 38 | 1012.1 |
| 20260905164534 | 72 | 18 | 2.0 | 13.0 | 0.00 | 0.00 | 0.00 | 39 | 1011.9 |
| 20260905163001 | 70 | 336 | 7.0 | 14.0 | 0.00 | 0.00 | 0.00 | 39 | 1012.1 |
| 20260905161559 | 69 | 314 | 4.0 | 18.0 | 0.00 | 0.00 | 0.00 | 41 | 1012.2 |
| 20260905160032 | 68 | 335 | 12.0 | 16.0 | 0.00 | 0.00 | 0.00 | 42 | 1012.1 |
| 20260905154520 | 66 | 337 | 7.0 | 19.0 | 0.00 | 0.00 | 0.00 | 46 | 1012.0 |
| 20260905153018 | 65 | 345 | 1.0 | 11.0 | 0.00 | 0.00 | 0.00 | 47 | 1012.0 |
| 20260905151516 | 64 | 307 | 1.0 | 11.0 | 0.00 | 0.00 | 0.00 | 47 | 1012.0 |
| 20260905150013 | 64 | 300 | 4.0 | 14.0 | 0.00 | 0.00 | 0.00 | 47 | 1011.7 |
| 20260905144512 | 62 | 315 | 4.0 | 14.0 | 0.00 | 0.00 | 0.00 | 49 | 1011.8 |
| 20260905143047 | 62 | 317 | 0.0 | 6.0 | 0.00 | 0.00 | 0.00 | 49 | 1011.7 |
| 20260905141538 | 62 | 312 | 0.0 | 0.0 | 0.00 | 0.00 | 0.00 | 50 | 1011.2 |
| 20260905140033 | 61 | 315 | 0.0 | 8.0 | 0.00 | 0.00 | 0.00 | 49 | 1011.1 |
| 20260905134536 | 61 | 329 | 0.0 | 1.0 | 0.00 | 0.00 | 0.00 | 51 | 1011.0 |
| 20260905133028 | 0 | 0.0 | 0.0 | 0.00 | 0.00 | 0.00 | 1010.6 | ||
| 20260905131527 | 0 | 0.0 | 0.0 | 0.00 | 0.00 | 0.00 | 1010.7 | ||
| 20260905130016 | 0 | 0.0 | 0.0 | 0.00 | 0.00 | 0.00 | 1010.4 | ||
| 20260905124514 | 0 | 0.0 | 0.0 | 0.00 | 0.00 | 0.00 | 1010.6 | ||
| 20260905123008 | 0 | 0.0 | 0.0 | 0.00 | 0.00 | 0.00 | 1010.7 | ||
| 20260905121503 | 0 | 0.0 | 0.0 | 0.00 | 0.00 | 0.00 | 1010.1 | ||
| 20260905120030 | 0 | 0.0 | 0.0 | 0.00 | 0.00 | 0.00 | 1009.8 | ||
| 20260905114525 | 0 | 0.0 | 0.0 | 0.00 | 0.00 | 0.00 | 1010.0 | ||
| 20260905113052 | 54 | 285 | 0.0 | 0.0 | 0.00 | 0.00 | 0.00 | 56 | 1009.6 |
| 20260905111549 | 56 | 295 | 0.0 | 0.0 | 0.00 | 0.00 | 0.00 | 56 | 1009.5 |
| 20260905110016 | 56 | 285 | 0.0 | 0.0 | 0.00 | 0.00 | 0.00 | 55 | 1009.4 |
| 20260905104514 | 58 | 260 | 0.0 | 0.0 | 0.00 | 0.00 | 0.00 | 52 | 1009.6 |
| 20260905103009 | 58 | 307 | 0.0 | 0.0 | 0.00 | 0.00 | 0.00 | 52 | 1009.1 |
| 20260905101516 | 58 | 283 | 0.0 | 0.0 | 0.00 | 0.00 | 0.00 | 51 | 1009.0 |
| 20260905100003 | 59 | 6 | 0.0 | 0.0 | 0.00 | 0.00 | 0.00 | 49 | 1008.8 |
| 20260905094501 | 60 | 351 | 0.0 | 0.0 | 0.00 | 0.00 | 0.00 | 49 | 1008.9 |
| 20260905093120 | 60 | 335 | 0.0 | 0.0 | 0.00 | 0.00 | 0.00 | 49 | 1008.7 |
| 20260905091604 | 61 | 316 | 0.0 | 0.0 | 0.00 | 0.00 | 0.00 | 48 | 1008.9 |
| 20260905090054 | 60 | 337 | 0.0 | 0.0 | 0.00 | 0.00 | 0.00 | 47 | 1008.8 |
| 20260905084550 | 62 | 318 | 0.0 | 0.0 | 0.00 | 0.00 | 0.00 | 45 | 1008.7 |
| 20260905083045 | 62 | 330 | 0.0 | 0.0 | 0.00 | 0.00 | 0.00 | 45 | 1008.4 |
| 20260905081547 | 62 | 326 | 0.0 | 0.0 | 0.00 | 0.00 | 0.00 | 45 | 1008.3 |
| 20260905080043 | 62 | 329 | 0.0 | 0.0 | 0.00 | 0.00 | 0.00 | 45 | 1008.2 |
| 20260905074542 | 62 | 319 | 0.0 | 0.0 | 0.00 | 0.00 | 0.00 | 45 | 1008.2 |
| 20260905073040 | 62 | 308 | 0.0 | 0.0 | 0.00 | 0.00 | 0.00 | 45 | 1008.4 |
| 20260905071536 | 63 | 319 | 0.0 | 0.0 | 0.00 | 0.00 | 0.00 | 44 | 1008.1 |
| 20260905070035 | 63 | 338 | 0.0 | 0.0 | 0.00 | 0.00 | 0.00 | 43 | 1008.0 |
| 20260905064529 | 64 | 345 | 0.0 | 0.0 | 0.00 | 0.00 | 0.00 | 43 | 1007.7 |
| 20260905063028 | 64 | 320 | 0.0 | 0.0 | 0.00 | 0.00 | 0.00 | 42 | 1007.7 |
| 20260905061608 | 65 | 338 | 0.0 | 0.0 | 0.00 | 0.00 | 0.00 | 41 | 1007.2 |
| 20260905060057 | 65 | 314 | 0.0 | 0.0 | 0.00 | 0.00 | 0.00 | 42 | 1007.3 |
| 20260905054555 | 66 | 316 | 0.0 | 0.0 | 0.00 | 0.00 | 0.00 | 41 | 1006.8 |
| 20260905053047 | 66 | 328 | 0.0 | 0.0 | 0.00 | 0.00 | 0.00 | 41 | 1006.6 |
| 20260905051545 | 66 | 308 | 0.0 | 0.0 | 0.00 | 0.00 | 0.00 | 40 | 1006.1 |
| 20260905050045 | 67 | 319 | 0.0 | 0.0 | 0.00 | 0.00 | 0.00 | 39 | 1006.0 |
| 20260905044541 | 68 | 318 | 0.0 | 0.0 | 0.00 | 0.00 | 0.00 | 38 | 1005.9 |
| 20260905043039 | 68 | 292 | 0.0 | 0.0 | 0.00 | 0.00 | 0.00 | 38 | 1005.8 |
| 20260905041539 | 70 | 98 | 0.0 | 0.0 | 0.00 | 0.00 | 0.00 | 35 | 1005.7 |
| 20260905040047 | 71 | 340 | 0.0 | 0.0 | 0.00 | 0.00 | 0.00 | 34 | 1005.4 |
| 20260905034534 | 72 | 338 | 0.0 | 0.0 | 0.00 | 0.00 | 0.00 | 33 | 1005.2 |
| 20260905033031 | 73 | 347 | 0.0 | 3.0 | 0.00 | 0.00 | 0.00 | 32 | 1004.9 |
| 20260905031530 | 74 | 343 | 0.0 | 3.0 | 0.00 | 0.00 | 0.00 | 31 | 1004.5 |
| 20260905030028 | 75 | 349 | 3.0 | 13.0 | 0.00 | 0.00 | 0.00 | 30 | 1004.3 |
| 20260905024526 | 76 | 33 | 2.0 | 13.0 | 0.00 | 0.00 | 0.00 | 29 | 1004.1 |
| 20260905023025 | 77 | 341 | 9.0 | 18.0 | 0.00 | 0.00 | 0.00 | 28 | 1003.7 |
| 20260905021524 | 78 | 333 | 6.0 | 18.0 | 0.00 | 0.00 | 0.00 | 27 | 1003.3 |
| 20260905020028 | 79 | 340 | 10.0 | 18.0 | 0.00 | 0.00 | 0.00 | 26 | 1003.1 |
| 20260905014519 | 81 | 349 | 7.0 | 16.0 | 0.00 | 0.00 | 0.00 | 25 | 1002.9 |
| 20260905013019 | 83 | 326 | 9.0 | 16.0 | 0.00 | 0.00 | 0.00 | 24 | 1002.7 |